Location: Wilhelmshaven
(53.5279°N, 8.1063°E)
Time: 15:02:03
(UTC+02:00)

ISS - Pass Details

Date: 13 July 2022
Orbit: 412 x 420 km, 51.6° (Epoch: 14 August)

Event Time Altitude Azimuth Distance (km) Brightness Sun altitude
Rises 03:13:52 0° 276° (W) 2,362 -0.1 -11.5°
Reaches altitude 10° 03:16:00 10° 270° (W) 1,499 -1.2 -11.4°
Maximum altitude 03:19:14 46° 197° (SSW) 577 -3.5 -11.2°
Drops below altitude 10° 03:22:29 10° 123° (ESE) 1,501 -1.0 -11.0°
Sets 03:24:37 0° 117° (ESE) 2,365 0.1 -10.9°
